Location: Ida Center
(41.8662°N, 83.5713°W)
Time: 08:48:43
(UTC+00:00)

USA 215 - Pass Details

Date: 17 November 2019
Orbit: 1101 x 1107 km, 123.0° (Epoch: 02 December)

Event Time Altitude Azimuth Distance (km) Brightness Sun altitude
Exits shadow 23:36:50 20° 56° (ENE) 2,325 4.4 -15.8°
Maximum altitude 23:39:57 28° 16° (NNE) 1,922 4.3 -16.4°
Drops below altitude 10° 23:45:20 10° 320° (NW) 2,963 5.9 -17.3°
Sets 23:48:09 0° 310° (NW) 3,922 6.8 -17.9°
